{"data":{"norad_id":63760,"epoch":"2026-09-20T18:56:37.218624Z","epoch_age_seconds":124858,"freshness":"FRESH","line1":"1 63760U 25089K   26263.78931966  .00159196  00000+0  12085-2 0  9992","line2":"2 63760  42.9991 195.8835 0002704 226.0887 133.9757 15.71073448 80826","mean_motion":15.71073448,"eccentricity":0.0002704,"inclination_deg":42.9991,"raan_deg":195.8835,"arg_perigee_deg":226.0887,"mean_anomaly_deg":133.9757,"bstar":0.0012085,"rev_number":8082,"period_min":91.657077002551,"perigee_km":354.00704200631,"apogee_km":357.64877022754,"semimajor_km":6733.9649061169,"source":"CELESTRAK","updated_at":"2026-09-21T09:00:35.094537Z"}}